TKJ8HW BKPR-LTFJ

Flight info

Callsign TKJ8HW
Flight time N/A
Altitude 37000
Route SARAX1D SARAX DCT SKJ DCT VELBA DCT ADORU UM19 IBODU IBODU1G/06R
Aircraft B738/M-SDE2E3FGHIRWXY/LB1

Departure

Time N/A
Airport Priština Adem Jashari International Airport (BKPR)

Arrival

Time 2026-04-30 18:08
Airport Istanbul Sabiha Gökçen International Airport (LTFJ)
Time Latitude Longitude Altitude Speed Heading
2026-04-30 17:39 41.87445 26.50216 37056 ft 506 kts 97°
2026-04-30 17:41 41.74042 26.79745 33234 ft 477 kts 133°
2026-04-30 17:42 41.70081 26.86777 32398 ft 470 kts 133°
2026-04-30 17:42 41.64244 26.97132 31153 ft 460 kts 133°
2026-04-30 17:43 41.60437 27.03860 30353 ft 454 kts 134°
2026-04-30 17:44 41.54745 27.13888 29010 ft 444 kts 134°
2026-04-30 17:44 41.49999 27.24392 27148 ft 439 kts 122°
2026-04-30 17:46 41.43129 27.41884 24174 ft 415 kts 123°
2026-04-30 17:47 41.37786 27.55118 21726 ft 396 kts 123°
2026-04-30 17:48 41.32703 27.67640 19816 ft 375 kts 123°
2026-04-30 17:48 41.29000 27.76721 18711 ft 370 kts 123°
2026-04-30 17:49 41.24141 27.88606 17157 ft 361 kts 123°
2026-04-30 17:50 41.19404 28.00151 15731 ft 350 kts 123°
2026-04-30 17:51 41.15932 28.08584 14678 ft 343 kts 123°
2026-04-30 17:52 41.12524 28.16836 13639 ft 337 kts 123°
2026-04-30 17:53 41.06982 28.30207 11804 ft 327 kts 124°
2026-04-30 17:54 41.02635 28.40653 10395 ft 320 kts 123°
2026-04-30 17:55 40.98538 28.50479 9633 ft 295 kts 124°
2026-04-30 17:56 40.94629 28.59805 8488 ft 287 kts 123°
2026-04-30 17:57 40.91745 28.66668 7625 ft 282 kts 123°
2026-04-30 17:58 40.88901 28.73425 6807 ft 279 kts 122°
2026-04-30 17:59 40.85153 28.82307 5655 ft 274 kts 122°
2026-04-30 18:00 40.81558 28.90803 4553 ft 250 kts 119°
2026-04-30 18:00 40.79158 28.96461 4202 ft 223 kts 119°
2026-04-30 18:01 40.77764 28.99891 3971 ft 207 kts 106°
2026-04-30 18:02 40.79213 29.04913 3969 ft 198 kts 64°
2026-04-30 18:02 40.80965 29.09784 3972 ft 197 kts 63°
2026-04-30 18:03 40.82748 29.14650 3350 ft 188 kts 63°
2026-04-30 18:04 40.84309 29.18908 2535 ft 150 kts 62°
2026-04-30 18:05 40.85968 29.23414 1579 ft 135 kts 62°
2026-04-30 18:06 40.87628 29.27934 742 ft 136 kts 62°
2026-04-30 18:07 40.89078 29.31863 302 ft 52 kts 63°
2026-04-30 18:08 40.89416 29.32471 303 ft 0 kts 34°
2026-04-30 18:09 40.89418 29.32473 303 ft 1 kts 34°
2026-04-30 18:10 40.89499 29.32432 302 ft 12 kts 250°
2026-04-30 18:11 40.89975 29.32102 310 ft 21 kts 333°
2026-04-30 18:11 40.90204 29.32365 310 ft 17 kts 64°
2026-04-30 18:12 40.90363 29.32561 310 ft 0 kts 333°
2026-04-30 18:13 40.90488 29.32480 311 ft 18 kts 334°
2026-04-30 18:14 40.90551 29.32440 310 ft 0 kts 334°
2026-04-30 18:15 40.90554 29.32438 310 ft 0 kts 334°
2026-04-30 18:16 40.90588 29.32390 310 ft 10 kts 288°
2026-04-30 18:16 40.90486 29.32064 310 ft 25 kts 244°
2026-04-30 18:17 40.90414 29.31868 310 ft 23 kts 244°
2026-04-30 18:17 40.90346 29.31684 310 ft 22 kts 244°
2026-04-30 18:17 40.90391 29.31449 309 ft 15 kts 335°
2026-04-30 18:18 40.90479 29.31486 310 ft 13 kts 15°
2026-04-30 18:18 40.90539 29.31455 310 ft 2 kts 334°
2026-04-30 18:18 40.90541 29.31454 310 ft 0 kts 334°